www.pogodaiklimat.ru
ПОГОДА в Апари
Время
(UTC), дата
12 24.05
15 24.05
18 24.05
21 24.05
00 25.05
03 25.05
06 25.05
09 25.05
12 25.05
15 25.05
18 25.05
21 25.05
00 26.05
03 26.05
06 26.05
09 26.05
12 26.05
15 26.05
18 26.05
21 26.05
00 27.05
03 27.05
06 27.05
09 27.05
12 27.05
15 27.05
18 27.05
21 27.05
00 28.05
03 28.05
06 28.05
09 28.05
12 28.05
15 28.05
18 28.05
00 29.05
03 29.05
06 29.05
09 29.05
12 29.05
15 29.05
18 29.05
21 29.05
00 30.05
03 30.05
06 30.05
09 30.05
12 30.05
15 30.05
18 30.05
21 30.05
00 31.05
03 31.05
06 31.05
09 31.05
Ветер
(напр.,м/с)
Видим. Явления Облачность Т
(С)
Тd
(С)
f
(%)
Тe
(С)
Тes
(С)
Комфортность P
(гПа)
Po
(гПа)
Тmin
(С)
Tmax
(С)
R
(мм)
R24
(мм)
S
(см)
штиль 0 15 км осадки на расстоянии {ливн. осадки, туман} 10/4 600 м
[Sc Ac As]
+26.5 +24.8 90 +38 +38 очень
душно
1011.8 1001.5 7
штиль 0 15 км 10/4 600 м
[Sc Ac As]
+26.4 +24.8 91 +38 +38 очень
душно
1011.3 1011.0
Ю 5 15 км 10/4 600 м
[Cu med, cong Ac As]
+25.8 +24.2 91 +36 +36 очень
душно
1010.9 1010.6
Ю 2 15 км 10/4 600 м
[Cu med, cong Ac As]
+25.5 +24.2 93 +35 +35 очень
душно
1010.4 1010.1
Ю 4 20 км мгла {туман} 8/1 600 м
[Cu med, cong Ac trans]
+27.0 +10.1 35 +28 +30 жарко 1011.3 1011.0 12 11.8
С 3 20 км мгла {туман} 5/1 600 м
[Cu med, cong Ac trans Cc]
+29.8 +10.1 29 +30 +42 жарко 1011.5 1011.2
С 5 18 км осадки на расстоянии {туман} 8/4 540 м
[Cb cap Ac As Ci fib]
+32.2 +10.1 26 +32 +35 жарко 1010.4 1010.1
СЗ 2 15 км слаб. ливневой дождь {туман} 9/3 600 м
[Cu Sc Ac As]
+30.4 +25.2 74 +44 +45 опасность
перегрева
1010.8 1010.5 0.0
Ю 1 15 км {ливн. осадки, туман} 10/3 600 м
[Cu med, cong Ac As]
+28.2 +25.3 84 +41 +41 опасность
перегрева
1012.0 1011.7 0.0
Ю 1 15 км 10/3 600 м
[Cu med, cong Ac As]
+27.4 +25.3 88 +40 +40 очень
душно
1012.6 1012.3
Ю 2 15 км 10/3 600 м
[Cu med, cong Ac As]
+27.2 +25.0 88 +39 +39 очень
душно
1011.7 1010.7
Ю 5 15 км 10/3 600 м
[Cu med, cong Ac As]
+27.0 +24.6 87 +38 +38 очень
душно
1010.9 1010.6
С 6 20 км мгла {туман} 5/1 600 м
[Cu hum Ac trans]
+28.2 +10.0 32 +28 +30 жарко 1012.1 1011.8 0.0 999.0
С 2 20 км мгла {туман} 8/1 600 м
[Cu med, cong Ac trans]
+31.8 +10.0 26 +31 +41 жарко 1011.9 1011.6
С 6 20 км мгла {туман} 4/3 600 м
[Cu med, cong Ac trans]
+32.6 +10.0 25 +32 +36 жарко 1009.1 1008.8
С 4 20 км мгла {туман} 3/3 600 м
[Sc]
+31.4 +26.0 73 +47 +48 опасность
перегрева
1009.5 1009.2
СЗ 2 15 км {гроза, туман} 6/3 600 м
[Cu med, cong Ac As]
+28.5 +24.1 77 +40 +40 очень
душно
1011.6 1011.3
Ю 2 15 км 5/3 600 м
[Cu med, cong Ac As]
+26.5 +24.2 87 +37 +37 очень
душно
1011.7 1011.4
Ю 2 15 км 3/3 600 м
[Cu med, cong]
+26.2 +23.4 85 +36 +36 очень
душно
1010.3 1010.0
Ю 2 15 км 4/3 600 м
[Cu med, cong Ac As]
+26.0 +23.6 87 +35 +35 очень
душно
1010.4 1010.1
Ю 6 20 км мгла {туман} 4/1 600 м
[Cu hum]
+28.2 +10.0 32 +28 +31 жарко 1011.4 1011.1
Ю 2 20 км мгла {туман} 1/1 600 м
[Cu med, cong]
+32.2 +10.0 26 +32 +51 опасность
солнечного
удара
1011.0 1010.7
С 6 15 км осадки на расстоянии {туман} 5/5 600 м
[Cu med, cong]
+32.0 +10.0 26 +32 +35 жарко 1008.7 1008.4
СЗ 6 15 км гроза без осадков {туман} 8/4 540 м
[Cb cap Ac As]
+30.4 +26.5 80 +47 +47 опасность
перегрева
1009.7 1009.4
Ю 5 15 км слаб. ливневой дождь {гроза} 10/4 600 м
[Sc Ac As]
+26.2 +24.6 91 +37 +37 очень
душно
1011.4 1011.1 4
Ю 4 15 км 10/4 600 м
[Sc Ac As]
+25.8 +24.2 91 +36 +36 очень
душно
1011.9 1011.6
Ю 4 15 км 10/4 600 м
[Cu med, cong Ac As]
+25.6 +24.0 91 +35 +35 очень
душно
1011.2 1010.9
Ю 2 15 км 10/3 600 м
[Cu med, cong Ac As]
+25.5 +24.0 91 +35 +35 очень
душно
1010.9 1010.6
Ю 3 20 км мгла {туман} 8/3 600 м
[Cu med, cong Ac trans Ci sp]
+28.0 +10.0 32 +28 +31 жарко 1011.9 1011.6 5 4.5
ЮВ 2 20 км мгла {туман} 5/3 600 м
[Cu med, cong Ac trans]
+31.4 +10.0 27 +31 +43 жарко 1011.8 1011.5
С 4 18 км мгла {туман} 5/4 540 м
[Cb cap Ac As Ci fib]
+33.2 +10.0 24 +32 +39 жарко 1009.9 1009.6
СВ 2 15 км осадки на расстоянии {гроза, туман} 9/4 600 м
[Sc Ac As]
+30.3 +10.0 28 +30 +31 жарко 1011.4 1011.1
Ю 4 15 км осадки на расстоянии {гроза, ливн. осадки} 9/4 600 м
[Sc Ac As]
+26.4 +24.8 91 +38 +38 очень
душно
1013.6 1013.3 7
Ю 2 15 км 3/3 600 м
[Cu med, cong]
+25.2 +23.8 92 +34 +34 очень
душно
1013.5 1013.2
Ю 2 15 км 3/3 600 м
[Cu med, cong]
+25.5 +24.0 91 +35 +35 очень
душно
1011.4 1011.1
Ю 6 20 км мгла {туман} 3/3 600 м
[Cu med, cong Ac As]
+27.1 +24.3 85 +38 +40 очень
душно
1012.8 1012.5 7 7
Ю 4 20 км мгла {туман} 4/3 600 м
[Cu med, cong Ci fib]
+30.8 +10.0 28 +31 +40 жарко 1012.0 1011.7
С 6 20 км мгла {туман} 4/4 540 м
[Cb cap Ci fib]
+33.1 +10.0 24 +32 +36 жарко 1010.7 1010.4
С 4 15 км осадки на расстоянии {туман} 5/4 540 м
[Cb cap Ac As Ci ing]
+32.0 +10.0 26 +32 +32 жарко 1011.1 1010.8
Ю 2 15 км {туман} 5/3 600 м
[Cu med, cong Ac As]
+27.6 +24.7 84 +39 +39 очень
душно
1012.5 1012.2
Ю 2 15 км 5/3 600 м
[Cu med, cong Ac As]
+26.0 +24.4 91 +36 +36 очень
душно
1013.0 1012.7
Ю 4 15 км 3/3 600 м
[Cu med, cong]
+26.2 +24.6 91 +37 +37 очень
душно
1012.1 1011.8
Ю 4 15 км 3/3 600 м
[Cu med, cong]
+25.8 +24.2 91 +36 +36 очень
душно
1012.6 1012.3
Ю 3 20 км мгла {туман} 4/3 600 м
[Cu med, cong Ci fib]
+28.2 +24.5 80 +40 +44 очень
душно
1014.0 1013.7
З 1 20 км мгла {туман} 3/3 600 м
[Cu med, cong]
+32.0 +10.0 26 +32 +49 жарко 1013.3 1013.0
С 4 20 км мгла {туман} 3/3 600 м
[Cu med, cong]
+32.8 +25.8 67 +48 +56 опасность
перегрева
1011.8 1011.5
С 2 20 км мгла {туман} 5/4 600 м
[Cb cap Ac As]
+32.2 +10.0 26 +32 +33 жарко 1011.8 1011.5
С 2 15 км гроза без осадков {туман} 6/4 540 м
[Cb cap Ac As]
+29.6 +25.4 78 +43 +43 опасность
перегрева
1013.8 1013.5
ЮЗ 4 15 км 3/3 600 м
[Cu med, cong]
+26.4 +24.3 88 +37 +37 очень
душно
1014.6 1014.3
ЮЗ 1 15 км 3/3 600 м
[Cu med, cong]
+25.6 +24.5 94 +36 +36 очень
душно
1013.2 1012.9
штиль 0 15 км 3/3 600 м
[Cu med, cong]
+25.8 +24.2 91 +36 +36 очень
душно
1013.0 1012.7
Ю 2 20 км мгла {туман} 1/1 600 м
[Cu hum]
+28.6 +24.9 80 +41 +48 опасность
перегрева
1014.1 1013.8
штиль 0 20 км мгла {туман} 1/1 600 м
[Cu med, cong]
+32.6 +10.1 25 +32 +58 опасность
солнечного
удара
1013.2 1012.9
СВ 4 20 км мгла {туман} 3/3 600 м
[Cu med, cong]
+33.6 +10.1 24 +33 +41 жарко 1011.0 1010.7
СВ 5 20 км мгла {туман} 3/3 600 м
[Cu med, cong]
+32.0 +10.1 26 +32 +32 жарко 1010.1 1009.8
Местоположение метеостанции Апари (Филиппины): широта 18.37 долгота 121.63 высота над уровнем моря 3 м.
В архиве по умолчанию представлена погода в Апари за последнюю неделю. Архивные данные за месяц целиком и за предыдущие месяцы, начиная с января 2011 года, Вы можете получить, выбрав интересующий диапазон дат из раскрывающегося списка и нажав кнопку "Найти!".
*Определитесь, кто Вы:
Внимание! Время в таблицах - всемирное. Для получения местного времени необходимо прибавить поправку, которая равна 8 ч.
Смотрите также архив погоды в соседних городах и на ближайших метеорологических станциях:
Партнеры нашего сайта:      
Пояснения к столбцам:
  • Ветер - указаны скорость ветра в м/с - средняя за 10 мин, порывы в срок и между сроками (в фигурных скобках) и направление, откуда дует ветер: С - северный,
  • СВ - северо-восточный, В - восточный, ЮВ - юго-восточный, Ю - южный, ЮЗ - юго-западный, З - западный, СЗ - северо-западный.
  • Видимость - горизонтальная дальность видимости в метрах или километрах. При видимости от 1 до 10 км при отсутствии осадков обычно наблюдается дымка, при ухудшении видимости до 1 км и менее - туман. В сухую погоду видимость может ухудшаться дымом, пылью или мглою.
  • Явления - указаны атмосферные явления, наблюдавшиеся в срок или в последний час перед сроком; фигурными скобками обозначены явления, наблюдавшиеся между сроками (за 1-3 часа до срока); квадратными скобками обозначены град или гололедные отложения с указанием их диаметра в мм.
  • Облачность - указаны через наклонную черту общая и нижняя облачность в баллах и высота нижней границы облаков в метрах; квадратными скобками обозначены формы облаков: Ci - перистые, Cs - перисто-слоистые, Cc - перисто-кучевые, Ac - высококучевые, As - высокослоистые, Sc - слоисто-кучевые, Ns - слоисто-дождевые, Cu - кучевые, Cb - кучево-дождевые. Подробнее классификацию облаков см. в Атласе облаков (PDF).
  • T - Температура воздуха - температура, измеренная на высоте 2 м над землей.
  • Td - Температура точки росы - температура, при понижении до которой содержащийся в воздухе водяной пар достигнет насыщения.
  • f - Относительная влажность воздуха - влажноcть воздуха, измеренная на высоте 2 м над землей.
  • Te - Эффективная температура - температура, которую ощущает одетый по сезону человек в тени. Характеристика душности погоды. При расчете учитывается влияние влажности воздуха и скорости ветра на теплоощущения человека.
  • Tes - Эффективная температура на солнце - температура, которую ощущает человек, с поправкой на солнечный нагрев. Характеристика знойности погоды. Зависит от высоты солнца над горизонтом, облачности и скорости ветра. Ночью, в пасмурную погоду, а также при ветре 12 м/с и более поправка равна нулю.
  • P - Атмосферное давление - приведенное к уровню моря атмосферное давление.
  • Po - Атмосферное давление - измеренное на уровне метеостанции атмосферное давление.
  • Tmin - Минимальная температура - минимум температуры воздуха на высоте 2 м над землей.
  • Tmax - Максимальная температура - максимум температуры воздуха на высоте 2 м над землей.
  • R - Количество осадков - Количество выпавших осадков за период времени, мм. При наведении курсора мыши на число - период времени, за который выпало указанное количество осадков.
  • R24 - Количество осадков - Количество выпавших осадков за 24 часа, мм.
  • S - Снежный покров - Высота снежного покрова, см. При наведении курсора мыши на число - состояние снежного покрова и степень покрытия местности в баллах.